Location: Newark
(42.8481°N, 0.4872°E)
Time: 17:51:35
(UTC+00:00)

Vanguard 2 - Pass Details

Date: 01 November 2020
Orbit: 554 x 2937 km, 32.9° (Epoch: 24 November)

Event Time Altitude Azimuth Distance (km) Brightness Sun altitude
Rises 17:01:50 0° 212° (SSW) 4,293 12.2 -2.9°
Reaches altitude 10° 17:04:46 10° 201° (SSW) 3,631 11.6 -3.4°
Maximum altitude 17:13:04 31° 144° (SE) 3,083 10.4 -4.9°
Drops below altitude 10° 17:24:57 10° 91° (E) 5,298 11.2 -7.0°
Enters shadow 17:26:41 - 88° (E) 5,706 11.3 -7.3°
Sets 17:30:20 0° 83° (E) 6,569 - -7.9°
